Home > Weather > Currie > Past weeks

Flag for Australia Past Weather in Currie, Tasmania, Australia — Yesterday and Last 2 Weeks

Now
48 °F

Passing clouds.


Feels Like: 44 °F
Forecast: 50 / 54 °F
Wind: 9 mph from West

Location: King Island Airport

Current Time: Aug 24, 2016 at 6:41:04 PM

Latest Report: Aug 24, 2016 at 6:00 PM


Visibility: N/A

Pressure: 29.95 "Hg

Humidity: 77%

Dew Point: 42 °F

Location of CurrieLocation

Past Weather in Currie — Graph

°F

Currie Temperature Yesterday

Maximum temperature yesterday: 53 °F (at 2:00 PM)
Minimum temperature yesterday: 45 °F (at 1:00 AM)
Average temperature yesterday: 48 °F

High & Low Weather Summary for the Past Weeks

 TemperatureHumidityPressure
High65 °F (Aug 18, 1:00 PM)96% (Aug 24, 1:00 AM)30.38 "Hg (Aug 24, 1:00 AM)
Low39 °F (Aug 18, 12:00 AM)55% (Aug 22, 4:00 PM)29.54 "Hg (Aug 9, 6:00 PM)
Average52 °F78%29.96 "Hg
* Reported Aug 9 5:00 PM — Aug 24 5:00 PM, Currie, Weather by CustomWeather, © 2016

Note: Actual official high and low records may vary slightly from our data, if they occured in-between our weather recording intervals... More about our weather records

Advertising

Currie Weather History for the Previous 24 Hours

Scroll right to see more
 ConditionsComfort  
Time TempWeatherWind HumidityBarometerVisibility
5:00 PM
Wed, Aug 24
50 °FCool.12 mph71%29.95 "HgN/A
4:00 PM52 °FCool.13 mph67%29.95 "HgN/A
3:00 PM52 °FPassing clouds.14 mph66%29.95 "HgN/A
2:00 PM51 °FCool.14 mph76%29.96 "HgN/A
1:00 PM50 °FCool.12 mph79%29.97 "HgN/A
12:00 PM48 °FOvercast.6 mph84%30.00 "HgN/A
11:00 AM52 °FCool.13 mph65%30.01 "HgN/A
10:00 AM51 °FCool.8 mph71%30.02 "HgN/A
9:00 AM50 °FPassing clouds.6 mph68%30.03 "HgN/A
8:00 AM46 °FCool.5 mph86%30.03 "HgN/A
7:00 AM45 °FQuite cool.6 mph90%30.03 "HgN/A
6:00 AM45 °FOvercast.No wind96%30.03 "HgN/A
5:00 AM45 °FCool.No wind96%30.02 "HgN/A
4:00 AM46 °FCool.No wind96%30.02 "HgN/A
3:00 AM46 °FOvercast.7 mph96%30.03 "Hg6 mi
2:00 AM44 °FQuite cool.5 mph96%30.04 "HgN/A
1:00 AM45 °FCool.7 mph96%30.05 "HgN/A
12:00 AM45 °FPassing clouds.5 mph95%30.05 "HgN/A
11:00 PM
Tue, Aug 23
46 °FCool.5 mph94%30.06 "HgN/A
10:00 PM47 °FCool.6 mph93%30.07 "HgN/A
9:00 PM47 °FRain showers. Overcast.5 mph92%30.08 "HgN/A
8:00 PM48 °FCool.8 mph90%30.07 "HgN/A
7:00 PM47 °FCool.7 mph85%30.06 "HgN/A
6:00 PM48 °FPassing clouds.6 mph80%30.06 "HgN/A
Weather by CustomWeather, © 2016

See weather overviewHow to use our weather pages